WD9EKA Weather Reports


Display with metric or nautical units.
time (UTC)temp
F
wind
direction
speed
MPH
gust
MPH
rain 1hr
in
rain 24hr
in
rain mn
in
humidity
%
barometer
mb
20260902002933 81 238 0.0 0.0 0.00 0.00 0.00 89 1010.3
20260902002416 82 237 0.0 0.0 0.00 0.00 0.00 87 1010.3
20260902001856 82 238 0.0 0.0 0.00 0.00 0.00 85 1010.3
20260902001334 83 237 0.0 0.0 0.00 0.00 0.00 84 1010.4
20260902000816 84 237 0.0 0.0 0.00 0.00 0.00 83 1010.4
20260902000257 85 237 0.0 0.0 0.00 0.00 0.00 81 1010.3
20260901235734 87 237 0.0 0.0 0.00 0.00 0.00 79 1010.5
20260901235217 88 237 0.0 0.0 0.00 0.00 0.00 76 1010.3
20260901234656 90 237 0.0 0.0 0.00 0.00 0.00 74 1010.5
20260901234134 90 237 0.0 0.0 0.00 0.00 0.00 73 1010.5
20260901233617 91 237 0.0 0.0 0.00 0.00 0.00 71 1010.5
20260901233056 92 237 0.0 0.0 0.00 0.00 0.00 70 1010.5
20260901232534 93 237 0.0 0.0 0.00 0.00 0.00 67 1010.8
20260901231933 93 237 0.0 0.0 0.00 0.00 0.00 68 1010.5
20260901231334 93 237 0.0 0.0 0.00 0.00 0.00 66 1010.4
20260901230734 93 237 0.0 0.0 0.00 0.00 0.00 66 1010.4
20260901230134 94 237 0.0 0.0 0.00 0.00 0.00 66 1010.4
20260901225534 93 237 0.0 0.0 0.00 0.00 0.00 65 1010.4
20260901224934 93 237 0.0 0.0 0.00 0.00 0.00 65 1010.6
20260901224333 93 237 0.0 0.0 0.00 0.00 0.00 65 1010.6
20260901223734 94 237 0.0 0.0 0.00 0.00 0.00 65 1010.4
20260901223133 93 237 0.0 1.0 0.00 0.00 0.00 64 1010.2
20260901222533 94 236 0.0 1.0 0.00 0.00 0.00 64 1010.4
20260901221934 95 236 0.0 1.0 0.00 0.00 0.00 63 1010.6
20260901221334 96 236 0.0 1.0 0.00 0.00 0.00 63 1010.3
20260901220832 95 236 0.0 0.0 0.00 0.00 0.00 63 1010.1
20260901220312 97 236 0.0 1.0 0.00 0.00 0.00 60 1010.4
20260901215753 97 236 0.0 0.0 0.00 0.00 0.00 59 1010.4
20260901215233 98 236 0.0 0.0 0.00 0.00 0.00 58 1010.4
20260901214713 98 223 0.0 1.0 0.00 0.00 0.00 51 1010.5
20260901214153 97 245 0.0 1.0 0.00 0.00 0.00 53 1010.5
20260901213632 97 257 0.0 1.0 0.00 0.00 0.00 55 1010.4
20260901213113 98 243 2.0 2.0 0.00 0.00 0.00 50 1010.3
20260901212553 98 227 1.0 2.0 0.00 0.00 0.00 51 1010.3
20260901212032 97 192 0.0 1.0 0.00 0.00 0.00 52 1010.2
20260901211513 97 242 1.0 2.0 0.00 0.00 0.00 54 1010.3
20260901210432 98 264 3.0 3.0 0.00 0.00 0.00 50 1010.5
20260901205913 97 240 1.0 2.0 0.00 0.00 0.00 51 1010.3
20260901204833 97 165 0.0 1.0 0.00 0.00 0.00 52 1010.7
20260901204313 97 235 4.0 4.0 0.00 0.00 0.00 51 1010.5
20260901203753 97 260 2.0 2.0 0.00 0.00 0.00 54 1010.7
20260901203233 97 227 1.0 2.0 0.00 0.00 0.00 51 1010.8
20260901202712 96 224 2.0 4.0 0.00 0.00 0.00 54 1010.6
20260901202153 97 215 3.0 4.0 0.00 0.00 0.00 54 1010.8
20260901201633 97 194 0.0 1.0 0.00 0.00 0.00 54 1010.7
20260901201113 96 245 3.0 4.0 0.00 0.00 0.00 52 1010.6
20260901200553 96 269 4.0 4.0 0.00 0.00 0.00 51 1010.8
20260901200033 96 268 3.0 5.0 0.00 0.00 0.00 54 1010.7
20260901195514 96 236 0.0 1.0 0.00 0.00 0.00 56 1010.8
20260901194953 96 205 1.0 2.0 0.00 0.00 0.00 56 1010.9
20260901194434 96 241 3.0 4.0 0.00 0.00 0.00 54 1010.9
20260901193913 95 269 4.0 5.0 0.00 0.00 0.00 53 1011.1
20260901193353 95 239 4.0 5.0 0.00 0.00 0.00 56 1011.1
20260901192833 96 230 2.0 3.0 0.00 0.00 0.00 55 1011.3
20260901192313 95 247 1.0 2.0 0.00 0.00 0.00 58 1011.1
20260901191753 95 257 2.0 4.0 0.00 0.00 0.00 55 1011.0
20260901191233 95 267 3.0 3.0 0.00 0.00 0.00 56 1011.2
20260901190713 95 241 2.0 4.0 0.00 0.00 0.00 58 1011.4
20260901190152 95 210 1.0 2.0 0.00 0.00 0.00 56 1011.2
20260901185633 95 230 3.0 4.0 0.00 0.00 0.00 56 1011.5
20260901185113 95 259 5.0 6.0 0.00 0.00 0.00 55 1011.4
20260901184553 95 265 4.0 4.0 0.00 0.00 0.00 55 1011.5
20260901184032 95 241 0.0 1.0 0.00 0.00 0.00 56 1011.5
20260901183457 95 192 1.0 2.0 0.00 0.00 0.00 57 1011.6
20260901182934 95 252 3.0 3.0 0.00 0.00 0.00 58 1011.9
20260901182417 94 249 4.0 6.0 0.00 0.00 0.00 57 1011.5
20260901181841 94 214 2.0 3.0 0.00 0.00 0.00 58 1011.7
20260901181321 94 245 4.0 5.0 0.00 0.00 0.00 57 1011.8
20260901180801 95 252 3.0 3.0 0.00 0.00 0.00 57 1011.6
20260901180241 94 240 4.0 4.0 0.00 0.00 0.00 60 1011.8
20260901175721 94 270 4.0 6.0 0.00 0.00 0.00 59 1011.7
20260901175201 94 213 4.0 6.0 0.00 0.00 0.00 57 1011.9
20260901174641 93 250 4.0 5.0 0.00 0.00 0.00 58 1011.8
20260901174121 94 247 2.0 3.0 0.00 0.00 0.00 59 1011.9
20260901173601 93 245 3.0 3.0 0.00 0.00 0.00 61 1012.1
20260901173041 93 169 3.0 4.0 0.00 0.00 0.00 59 1012.2
20260901172521 93 241 2.0 3.0 0.00 0.00 0.00 61 1012.1
20260901172001 93 208 1.0 2.0 0.00 0.00 0.00 61 1012.1
20260901171441 93 240 2.0 3.0 0.00 0.00 0.00 60 1012.1
20260901170921 93 235 2.0 3.0 0.00 0.00 0.00 61 1012.2
20260901170401 93 222 1.0 2.0 0.00 0.00 0.00 63 1012.4
20260901165841 92 250 1.0 3.0 0.00 0.00 0.00 63 1012.2
20260901165321 91 266 3.0 5.0 0.00 0.00 0.00 62 1012.3
20260901164801 91 246 5.0 6.0 0.00 0.00 0.00 64 1012.5
20260901164241 91 264 5.0 8.0 0.00 0.00 0.00 63 1012.4
20260901163721 91 263 5.0 6.0 0.00 0.00 0.00 63 1012.3
20260901162121 91 278 3.0 4.0 0.00 0.00 0.00 63 1012.4
20260901161601 90 241 2.0 2.0 0.00 0.00 0.00 68 1012.4
20260901161041 91 261 6.0 8.0 0.00 0.00 0.00 62 1012.7
20260901160521 90 214 1.0 1.0 0.00 0.00 0.00 65 1012.6
20260901160001 90 204 4.0 5.0 0.00 0.00 0.00 67 1012.5
20260901155441 90 232 2.0 3.0 0.00 0.00 0.00 66 1012.4
20260901154921 90 224 2.0 4.0 0.00 0.00 0.00 68 1012.5
20260901154401 89 269 6.0 8.0 0.00 0.00 0.00 67 1012.5
20260901153321 88 258 4.0 6.0 0.00 0.00 0.00 68 1012.4
20260901152801 88 235 1.0 2.0 0.00 0.00 0.00 69 1012.4
20260901152241 87 250 2.0 3.0 0.00 0.00 0.00 72 1012.6
20260901151721 87 212 2.0 3.0 0.00 0.00 0.00 71 1012.7
20260901151201 87 278 4.0 5.0 0.00 0.00 0.00 71 1012.6
20260901150633 87 213 0.0 2.0 0.00 0.00 0.00 73 1012.4
20260901150121 86 201 2.0 3.0 0.00 0.00 0.00 71 1012.3
20260901145601 86 197 4.0 5.0 0.00 0.00 0.00 71 1012.6
20260901145033 86 241 3.0 4.0 0.00 0.00 0.00 73 1012.8
20260901144521 86 266 2.0 4.0 0.00 0.00 0.00 73 1012.6
20260901144001 85 197 4.0 5.0 0.00 0.00 0.00 73 1012.5
20260901143433 85 258 4.0 8.0 0.00 0.00 0.00 73 1012.5
20260901142921 84 170 2.0 4.0 0.00 0.00 0.00 74 1012.8
20260901142401 84 216 3.0 3.0 0.00 0.00 0.00 75 1012.6
20260901141834 84 247 2.0 3.0 0.00 0.00 0.00 76 1012.5
20260901141321 83 194 2.0 3.0 0.00 0.00 0.00 76 1012.5
20260901140801 83 196 2.0 3.0 0.00 0.00 0.00 78 1012.5
20260901140241 82 213 2.0 2.0 0.00 0.00 0.00 78 1012.6
20260901135721 82 219 2.0 2.0 0.00 0.00 0.00 80 1012.4
20260901135201 82 216 1.0 2.0 0.00 0.00 0.00 80 1012.4
20260901134634 81 214 2.0 3.0 0.00 0.00 0.00 81 1012.6
20260901134121 81 196 1.0 2.0 0.00 0.00 0.00 81 1012.4
20260901133601 81 208 2.0 3.0 0.00 0.00 0.00 81 1012.6
20260901133033 80 216 2.0 3.0 0.00 0.00 0.00 81 1012.7
20260901131938 79 194 2.0 2.0 0.00 0.00 0.00 83 1012.6
20260901131425 79 219 1.0 2.0 0.00 0.00 0.00 84 1012.7
20260901130906 79 185 0.0 0.0 0.00 0.00 0.00 85 1012.6
20260901130338 78 211 0.0 1.0 0.00 0.00 0.00 86 1012.6
20260901125826 78 205 0.0 1.0 0.00 0.00 0.00 87 1012.7
20260901125308 77 211 0.0 1.0 0.00 0.00 0.00 88 1012.6
20260901124738 77 217 1.0 2.0 0.00 0.00 0.00 89 1012.6
20260901123705 75 234 2.0 4.0 0.00 0.00 0.00 91 1012.5
20260901123138 75 218 0.0 0.0 0.00 0.00 0.00 92 1012.5
20260901122625 74 206 0.0 1.0 0.00 0.00 0.00 93 1012.5
20260901122105 73 235 1.0 3.0 0.00 0.00 0.00 94 1012.6
20260901121538 73 230 2.0 3.0 0.00 0.00 0.00 95 1012.6
20260901121025 73 221 0.0 0.0 0.00 0.00 0.00 96 1012.7
20260901120506 72 221 0.0 0.0 0.00 0.00 0.00 96 1012.3
20260901115425 72 212 0.0 0.0 0.00 0.00 0.00 97 1012.2
20260901114906 72 219 0.0 1.0 0.00 0.00 0.00 97 1011.9
20260901113825 71 221 0.0 0.0 0.00 0.00 0.00 97 1012.1
20260901113306 72 221 0.0 0.0 0.00 0.00 0.00 97 1011.9
20260901112738 72 221 0.0 0.0 0.00 0.00 0.00 96 1012.1
20260901112225 72 221 0.0 0.0 0.00 0.00 0.00 96 1012.0
20260901111705 72 221 0.0 0.0 0.00 0.00 0.00 96 1012.0
20260901111138 72 205 0.0 0.0 0.00 0.00 0.00 96 1011.8
20260901110626 72 227 0.0 0.0 0.00 0.00 0.00 97 1011.8
20260901110106 71 220 0.0 0.0 0.00 0.00 0.00 97 1011.8
20260901105538 71 220 0.0 0.0 0.00 0.00 0.00 98 1011.9
20260901105033 71 209 0.0 0.0 0.00 0.00 0.00 98 1011.8
20260901104506 71 228 0.0 0.0 0.00 0.00 0.00 99 1011.9
20260901103425 70 250 0.0 0.0 0.00 0.00 0.00 99 1011.9
20260901102906 70 253 0.0 0.0 0.00 0.00 0.00 99 1011.7
20260901102338 70 254 0.0 0.0 0.00 0.00 0.00 98 1011.7
20260901101234 70 254 0.0 0.0 0.00 0.00 0.00 98 1011.7
20260901100633 70 260 0.0 0.0 0.00 0.00 0.00 98 1011.8
20260901100122 71 215 0.0 0.0 0.00 0.00 0.00 98 1011.7
20260901095602 71 215 0.0 0.0 0.00 0.00 0.00 98 1011.8
20260901095042 71 176 0.0 0.0 0.00 0.00 0.00 97 1011.5
20260901094522 71 176 0.0 0.0 0.00 0.00 0.00 97 1011.7
20260901094002 71 222 0.0 0.0 0.00 0.00 0.00 97 1011.5
20260901093441 71 218 0.0 0.0 0.00 0.00 0.00 97 1011.7
20260901092922 71 221 0.0 0.0 0.00 0.00 0.00 97 1011.6
20260901092402 72 221 0.0 0.0 0.00 0.00 0.00 96 1011.5
20260901091842 72 221 0.0 0.0 0.00 0.00 0.00 96 1011.8
20260901091322 72 221 0.0 0.0 0.00 0.00 0.00 95 1011.5
20260901090801 72 221 0.0 0.0 0.00 0.00 0.00 95 1011.6
20260901090242 72 221 0.0 0.0 0.00 0.00 0.00 95 1011.4
20260901085722 72 221 0.0 0.0 0.00 0.00 0.00 95 1011.6
20260901084642 73 221 0.0 0.0 0.00 0.00 0.00 95 1011.5
20260901083602 72 213 0.0 0.0 0.00 0.00 0.00 95 1011.6
20260901083042 72 213 0.0 0.0 0.00 0.00 0.00 95 1011.5
20260901082522 72 213 0.0 0.0 0.00 0.00 0.00 96 1011.4
20260901082002 72 213 0.0 0.0 0.00 0.00 0.00 96 1011.5
20260901081442 72 212 0.0 1.0 0.00 0.00 0.00 96 1011.4
20260901080922 72 212 0.0 0.0 0.00 0.00 0.00 96 1011.7
20260901080402 72 212 0.0 0.0 0.00 0.00 0.00 96 1011.5
20260901075842 72 212 0.0 0.0 0.00 0.00 0.00 95 1011.6
20260901075322 72 212 0.0 0.0 0.00 0.00 0.00 95 1011.5
20260901074802 72 212 0.0 0.0 0.00 0.00 0.00 94 1011.6
20260901074242 73 212 0.0 0.0 0.00 0.00 0.00 94 1011.5
20260901073722 73 212 0.0 0.0 0.00 0.00 0.00 94 1011.4
20260901073202 73 212 0.0 0.0 0.00 0.00 0.00 94 1011.3
20260901072642 73 212 0.0 0.0 0.00 0.00 0.00 94 1011.4
20260901072122 73 212 0.0 0.0 0.00 0.00 0.00 94 1011.5
20260901071602 73 212 0.0 0.0 0.00 0.00 0.00 93 1011.5
20260901071033 73 212 0.0 0.0 0.00 0.00 0.00 93 1011.4
20260901070433 73 211 0.0 0.0 0.00 0.00 0.00 93 1011.4
20260901065914 73 211 0.0 1.0 0.00 0.00 0.00 93 1011.4
20260901065354 73 210 0.0 0.0 0.00 0.00 0.00 93 1011.5
20260901064833 73 210 0.0 0.0 0.00 0.00 0.00 94 1011.4
20260901064314 73 210 0.0 0.0 0.00 0.00 0.00 94 1011.5
20260901063753 73 210 0.0 0.0 0.00 0.00 0.00 94 1011.6
20260901063233 73 210 0.0 0.0 0.00 0.00 0.00 95 1011.5
20260901062633 72 210 0.0 0.0 0.00 0.00 0.00 96 1011.6
20260901062033 72 210 0.0 0.0 0.00 0.00 0.00 96 1011.4
20260901061433 72 209 0.0 0.0 0.00 0.00 0.00 96 1011.5
20260901060833 72 210 0.0 0.0 0.00 0.00 0.00 96 1011.5
20260901060233 72 210 0.0 0.0 0.00 0.00 0.00 95 1011.5
20260901055633 72 209 0.0 0.0 0.00 0.00 0.00 94 1011.5
20260901054434 73 210 0.0 0.0 0.00 0.00 0.00 92 1011.7
20260901053234 74 209 0.0 0.0 0.00 0.00 0.00 91 1011.5
20260901052714 74 209 0.0 0.0 0.00 0.00 0.00 90 1011.6
20260901052154 74 209 0.0 1.0 0.00 0.00 0.00 90 1011.5
20260901051633 74 209 0.0 0.0 0.00 0.00 0.00 90 1011.5
20260901051034 74 209 0.0 0.0 0.00 0.00 0.00 90 1011.3
20260901050434 74 206 0.0 0.0 0.00 0.00 0.00 89 1011.4
20260901045930 74 205 0.0 0.0 0.00 0.00 0.00 90 1011.4
20260901045410 74 205 0.0 0.0 0.00 0.00 0.00 90 1011.2
20260901044333 73 183 0.0 0.0 0.00 0.00 0.00 95 1011.4
20260901043733 72 171 0.0 0.0 0.00 0.00 0.00 97 1011.4
20260901043133 71 163 0.0 0.0 0.00 0.00 0.00 98 1011.4
20260901042533 70 162 0.0 0.0 0.00 0.00 0.00 98 1011.4
20260901041934 70 162 0.0 0.0 0.00 0.00 0.00 97 1011.6
20260901041333 70 162 0.0 0.0 0.00 0.00 0.00 97 1011.5
20260901040818 70 162 0.0 0.0 0.00 0.00 0.00 97 1011.3
20260901040258 70 162 0.0 0.0 0.00 0.00 0.00 97 1011.5
20260901035736 71 162 0.0 0.0 0.00 0.00 0.00 96 1011.4
20260901035133 71 162 0.0 0.0 0.00 0.00 0.00 96 1011.4
20260901034627 71 162 0.0 0.0 0.00 0.00 0.00 95 1011.5
20260901034107 71 162 0.0 0.0 0.00 0.00 0.00 94 1011.6
20260901033546 71 162 0.0 0.0 0.00 0.00 0.00 94 1011.6
20260901033026 72 162 0.0 0.0 0.00 0.00 0.00 94 1011.4
20260901032506 72 162 0.0 0.0 0.00 0.00 0.00 93 1011.3
20260901031946 72 162 0.0 0.0 0.00 0.00 0.00 91 1011.3
20260901031426 73 162 0.0 0.0 0.00 0.00 0.00 91 1011.6
20260901030907 73 162 0.0 0.0 0.00 0.00 0.00 89 1011.7
20260901030346 74 162 0.0 0.0 0.00 0.00 0.00 88 1011.7
20260901025826 75 162 0.0 0.0 0.00 0.00 0.00 87 1011.7
20260901025251 76 162 0.0 0.0 0.00 0.00 0.00 84 1011.4
20260901024730 76 144 0.0 0.0 0.00 0.00 0.00 83 1011.5
20260901024211 76 143 0.0 0.0 0.00 0.00 0.00 84 1011.4
20260901023650 76 148 0.0 0.0 0.00 0.00 0.00 84 1011.2
20260901022610 76 187 0.0 0.0 0.00 0.00 0.00 82 1011.5
20260901022050 76 187 0.0 0.0 0.00 0.00 0.00 83 1011.1
20260901021531 75 187 0.0 0.0 0.00 0.00 0.00 84 1010.9
20260901021010 75 187 0.0 0.0 0.00 0.00 0.00 83 1011.1
20260901020450 74 186 0.0 0.0 0.00 0.00 0.00 85 1010.9
20260901015930 75 167 0.0 0.0 0.00 0.00 0.00 87 1010.9
20260901014850 73 167 0.0 0.0 0.00 0.00 0.00 90 1010.8
20260901014331 72 167 0.0 0.0 0.00 0.00 0.00 95 1011.0
20260901013811 72 167 0.0 0.0 0.00 0.00 0.00 95 1010.7
20260901013250 73 167 0.0 0.0 0.00 0.00 0.00 95 1010.6
20260901012730 73 167 0.0 0.0 0.00 0.00 0.00 95 1010.9
20260901012210 73 167 0.0 0.0 0.00 0.00 0.00 95 1010.6
20260901011651 73 167 0.0 0.0 0.00 0.00 0.00 95 1010.7
20260901011130 73 167 0.0 0.0 0.00 0.00 0.00 95 1010.7
20260901010555 74 167 0.0 0.0 0.00 0.00 0.00 94 1010.6
20260901010034 74 167 0.0 0.0 0.00 0.00 0.00 94 1010.5
20260901005514 74 167 0.0 0.0 0.00 0.00 0.00 93 1010.5
20260901004955 75 167 0.0 0.0 0.00 0.00 0.00 92 1010.5
20260901004433 75 167 0.0 0.0 0.00 0.00 0.00 91 1010.5
20260901003915 76 167 0.0 0.0 0.00 0.00 0.00 90 1010.4
20260901003354 76 167 0.0 0.0 0.00 0.00 0.00 88 1010.3